Location: F?ge?el
(45.8833°N, 22.5833°E)
Time: 13:19:09
(UTC+00:00)

BREEZE-M DEB (TANK) - Pass Details

Date: 17 November 2025
Orbit: 304 x 15918 km, 49.4° (Epoch: 06 December)

Event Time Altitude Azimuth Distance (km) Brightness Sun altitude
Rises 17:23:16 0° 273° (W) 2,269 6.8 -25.4°
Reaches altitude 10° 17:24:36 10° 278° (W) 1,635 5.7 -25.7°
Maximum altitude 17:27:43 61° 0° (N) 874 3.2 -26.2°
Enters shadow 17:27:57 60° 15° (NNE) 911 3.2 -26.2°
